De Queen, AR

7:17 AM CST on January 29, 2020 (GMT -0600)
Helms Sevier County

Weather History for KDEQ - October, 2019

Change the Weather History Date:

Wednesday, October 30, 2019

  Actual Average Record
Temperature  
Mean Temperature 50 °F 59 °F  
Max Temperature 61 °F 72 °F 90 °F (1937)
Min Temperature 40 °F 46 °F 26 °F (1980)
Degree Days  
Heating Degree Days 14 7  
Month to date heating degree days 150 118  
Since 1 July heating degree days 150 127  
Cooling Degree Days 0 1  
Month to date cooling degree days 96 70  
Year to date cooling degree days 2313 1935  
Moisture  
Dew Point 53 °F    
Average Humidity 90    
Maximum Humidity 96    
Minimum Humidity 73    
Precipitation  
Precipitation 0.78 in 0.12 in 3.97 in (1969)
Month to date precipitation 4.64 4.41  
Year to date precipitation 46.73 39.61  
Snow  
Snow - - - ()
Month to date snowfall 0.0  
Since 1 July snowfall 0.0  
Since 1 September snowfall 0.0  
Snow Depth 0.00 in    
Sea Level Pressure  
Sea Level Pressure 29.96 in    
Wind  
Wind Speed 5 mph ()    
Max Wind Speed 21 mph    
Max Gust Speed 31 mph    
Visibility 5.1 miles    
Events Rain , Thunderstorm    
T = Trace of Precipitation, MM = Missing Value Source: Averaged Metar Reports

Daily Weather History Graph

Daily Weather History Graph

Search for Another Location

Airport or City:

Astronomy

Oct. 30, 2019 Rise Set
Actual Time 7:35 AM CDT 6:26 PM CDT
Civil Twilight 7:09 AM CDT 6:52 PM CDT
Nautical Twilight 6:39 AM CDT 7:22 PM CDT
Astronomical Twilight 6:10 AM CDT 7:51 PM CDT
Moon 10:13 AM CDT (10/30) 8:41 PM CDT (10/30)
Length of Visible Light 11h 43m
Length of Day
10h 51m
Waxing Crescent, 9% of the Moon is Illuminated
Oct 30
Waxing Crescent
Nov 4
First Quarter
Nov 12
Full
Nov 19
Last Quarter
Nov 26
New

Hourly Weather History & Observations

Time (CDT) Temp. Windchill Dew Point Humidity Pressure Visibility Wind Dir Wind Speed Gust Speed Precip Events Conditions
12:47 AM 60.8 °F - 57.2 °F 88% 29.97 in 9.0 mi NNE 4.6 mph - 0.00 in Rain , Thunderstorm Light Rain
12:53 AM 60.1 °F - 57.0 °F 90% 29.97 in 4.0 mi NNW 5.8 mph - 0.04 in Rain , Thunderstorm Heavy Rain
12:57 AM 60.1 °F - 57.0 °F 90% 29.98 in 2.5 mi North 4.6 mph - 0.03 in Rain , Thunderstorm Heavy Thunderstorms and Rain
1:07 AM 59.0 °F - 57.0 °F 93% 29.98 in 1.0 mi Calm Calm - 0.30 in Rain , Thunderstorm Heavy Thunderstorms and Rain
1:23 AM 59.0 °F - 57.0 °F 93% 29.97 in 1.8 mi ENE 5.8 mph - 0.45 in Rain , Thunderstorm Heavy Rain
1:28 AM 59.0 °F - 57.0 °F 93% 29.98 in 2.0 mi Calm Calm - 0.48 in Rain Heavy Rain
1:41 AM 59.0 °F - 57.0 °F 93% 29.95 in 1.5 mi ESE 15.0 mph - 0.63 in Rain Heavy Rain
1:50 AM 59.0 °F - 57.2 °F 94% 29.94 in 3.0 mi ESE 15.0 mph - 0.63 in Rain Rain
1:53 AM 59.0 °F - 57.0 °F 93% 29.94 in 4.0 mi ESE 17.3 mph - 0.63 in Rain Rain
2:30 AM 60.1 °F - 57.0 °F 90% 29.94 in 4.0 mi East 8.1 mph - N/A Rain Heavy Rain
2:45 AM 60.1 °F - 57.0 °F 90% 29.93 in 2.5 mi ENE 8.1 mph - N/A Rain Heavy Rain
2:53 AM 59.0 °F - 57.0 °F 93% 29.91 in 3.0 mi East 9.2 mph - N/A Rain Heavy Rain
3:38 AM 60.1 °F - 57.0 °F 90% 29.90 in 10.0 mi East 8.1 mph - 0.01 in Rain Light Rain
3:49 AM 60.8 °F - 57.2 °F 88% 29.90 in 8.0 mi ESE 6.9 mph - 0.01 in Rain Rain
3:53 AM 60.1 °F - 57.0 °F 90% 29.90 in 7.0 mi ESE 6.9 mph - 0.01 in Rain Rain
4:53 AM 60.1 °F - 57.0 °F 90% 29.89 in 10.0 mi East 3.5 mph - 0.00 in   Overcast
5:53 AM 60.1 °F - 57.0 °F 90% 29.91 in 10.0 mi East 3.5 mph - N/A   Overcast
6:53 AM 60.1 °F - 57.0 °F 90% 29.91 in 9.0 mi Calm Calm - N/A   Overcast
7:53 AM 59.0 °F - 57.0 °F 93% 29.91 in 2.0 mi Calm Calm - N/A   Overcast
8:16 AM 60.1 °F - 57.0 °F 90% 29.92 in 1.2 mi NE 3.5 mph - N/A   Overcast
8:53 AM 60.1 °F - 57.0 °F 90% 29.92 in 1.2 mi North 3.5 mph - 0.00 in Rain Light Rain
9:28 AM 59.0 °F - 57.0 °F 93% 29.94 in 1.2 mi Calm Calm - 0.00 in Rain , Thunderstorm Rain
9:37 AM 59.0 °F - 57.0 °F 93% 29.93 in 1.2 mi ENE 4.6 mph - 0.02 in Rain Heavy Rain
9:53 AM 59.0 °F - 57.9 °F 96% 29.94 in 3.0 mi Calm Calm - 0.03 in Rain Light Rain
10:05 AM 60.1 °F - 57.9 °F 93% 29.94 in 7.0 mi East 3.5 mph - 0.00 in Rain Light Rain
10:17 AM 60.1 °F - 57.0 °F 90% 29.94 in 10.0 mi Calm Calm - 0.00 in   Overcast
10:37 AM 60.1 °F - 57.9 °F 93% 29.91 in 10.0 mi NE 8.1 mph - 0.00 in   Overcast
10:53 AM 60.1 °F - 57.9 °F 93% 29.90 in 6.0 mi Calm Calm - 0.02 in Rain Light Rain
11:29 AM 60.1 °F - 57.9 °F 93% 29.95 in 2.5 mi Calm Calm - 0.01 in Rain Heavy Rain
11:39 AM 60.1 °F - 57.9 °F 93% 29.94 in 6.0 mi NE 4.6 mph - 0.01 in Rain Light Rain
11:53 AM 59.0 °F - 57.0 °F 93% 29.91 in 8.0 mi North 4.6 mph - 0.01 in Rain Light Rain
12:53 PM 61.0 °F - 57.9 °F 90% 29.91 in 10.0 mi Calm Calm - 0.00 in   Overcast
1:20 PM 60.1 °F - 57.0 °F 90% 29.93 in 1.8 mi Calm Calm - 0.03 in Rain Heavy Rain
1:31 PM 60.1 °F - 57.9 °F 93% 29.93 in 3.0 mi West 3.5 mph - 0.03 in Rain Rain
1:53 PM 60.1 °F - 57.0 °F 90% 29.92 in 10.0 mi WNW 4.6 mph - 0.03 in   Overcast
2:26 PM 59.0 °F - 55.9 °F 90% 29.92 in 2.0 mi WNW 5.8 mph - 0.00 in   Overcast
2:53 PM 57.0 °F - 55.0 °F 93% 29.92 in 1.8 mi West 6.9 mph - 0.00 in   Overcast
3:22 PM 55.0 °F - 52.0 °F 89% 29.92 in 3.0 mi NNW 8.1 mph - N/A   Overcast
3:35 PM 54.0 °F - 52.0 °F 93% 29.93 in 2.5 mi NNW 6.9 mph - N/A   Overcast
3:53 PM 53.1 °F - 51.1 °F 93% 29.92 in 2.5 mi NNW 9.2 mph - N/A   Overcast
4:01 PM 53.1 °F - 50.0 °F 89% 29.94 in 4.0 mi NW 10.4 mph - N/A   Overcast
4:53 PM 50.0 °F - 46.0 °F 86% 29.95 in 10.0 mi NNW 10.4 mph - N/A   Overcast
5:17 PM 48.9 °F - 45.0 °F 86% 29.96 in 6.0 mi NNW 10.4 mph - N/A   Overcast
5:44 PM 46.9 °F - 44.1 °F 90% 29.97 in 6.0 mi NNW 10.4 mph - N/A   Overcast
5:53 PM 46.9 °F - 44.1 °F 90% 29.98 in 5.0 mi NW 8.1 mph - N/A   Overcast
6:53 PM 44.1 °F 39.5 °F 41.0 °F 89% 30.04 in 3.0 mi WNW 8.1 mph - N/A   Overcast
7:44 PM 44.1 °F 39.5 °F 39.9 °F 85% 30.07 in 10.0 mi NW 8.1 mph - 0.00 in Rain Light Rain
7:53 PM 44.1 °F 39.5 °F 39.0 °F 82% 30.06 in 10.0 mi NW 8.1 mph - 0.00 in Rain Light Rain
8:53 PM 43.0 °F 37.7 °F 37.9 °F 82% 30.09 in 10.0 mi NW 9.2 mph 19.6 mph 0.00 in Rain Light Rain
9:53 PM 42.1 °F 37.7 °F 37.0 °F 82% 30.11 in - NNW 6.9 mph - 0.00 in   Overcast
10:53 PM 42.1 °F 35.2 °F 35.1 °F 76% 30.14 in - NW 12.7 mph 20.7 mph 0.00 in   Overcast
11:53 PM 41.0 °F 34.7 °F 33.1 °F 73% 30.17 in - NNW 10.4 mph 23.0 mph N/A   Overcast